FW4441 Weather Reports


time (UTC)temp
F
wind
direction
speed
knots
gust
knots
rain 1hr
in
rain 24hr
in
rain mn
in
humidity
%
barometer
mb
20260505170032 66 271 6.1 17.4 0.00 0.00 0.00 64 1011.7
20260505164531 65 266 5.2 10.4 0.00 0.00 0.00 65 1011.7
20260505163107 64 266 5.2 11.3 0.00 0.00 0.00 66 1011.7
20260505161532 64 263 6.1 13.9 0.00 0.00 0.00 66 1011.7
20260505151531 61 287 4.3 9.6 0.00 0.00 0.00 72 1011.5
20260505123036 53 285 2.6 7.8 0.00 0.00 0.00 86 1010.4
20260505121533 53 299 3.5 7.8 0.00 0.00 0.00 85 1010.3
20260505120031 53 320 0.9 5.2 0.00 0.00 0.00 85 1010.2
20260505114529 54 312 1.7 4.3 0.00 0.00 0.00 85 1010.2
20260505113034 54 313 2.6 5.2 0.00 0.00 0.00 85 1010.1
20260505111531 54 318 3.5 6.1 0.00 0.00 0.00 84 1010.0
20260505110107 55 8 2.6 7.8 0.00 0.00 0.00 83 1009.9
20260505101530 56 333 1.7 6.1 0.00 0.00 0.00 82 1009.6
20260505100038 55 329 3.5 7.0 0.00 0.00 0.00 82 1009.5
20260505094531 56 340 1.7 5.2 0.00 0.00 0.00 81 1009.4
20260505093031 56 351 0.9 3.5 0.00 0.00 0.00 81 1009.3
20260505091530 57 348 1.7 4.3 0.00 0.00 0.00 81 1009.3
20260505090031 57 314 1.7 5.2 0.00 0.00 0.00 80 1009.1
20260505084606 57 348 0.9 5.2 0.00 0.00 0.00 80 1009.1
20260505083030 58 325 0.9 4.3 0.00 0.00 0.00 79 1009.1
20260505081643 58 329 1.7 4.3 0.00 0.00 0.00 78 1008.9
20260505080032 59 13 1.7 3.5 0.00 0.00 0.00 77 1008.8
20260505071532 62 343 1.7 3.5 0.00 0.00 0.00 70 1008.5
20260505070032 63 213 1.7 7.8 0.00 0.00 0.00 69 1008.4
20260505064528 63 203 4.3 7.8 0.00 0.00 0.00 68 1008.3
20260505063030 63 192 2.6 7.0 0.00 0.00 0.00 67 1008.2
20260505054531 65 192 3.5 7.8 0.00 0.00 0.00 62 1008.1
20260505053031 66 184 6.1 11.3 0.00 0.00 0.00 61 1008.1
20260505041535 67 175 3.5 6.1 0.00 0.00 0.00 54 1007.2
20260505040043 67 178 2.6 5.2 0.00 0.00 0.00 54 1007.0
20260505034647 68 196 1.7 4.3 0.00 0.00 0.00 54 1006.8
20260505031528 69 189 0.9 4.3 0.00 0.00 0.00 54 1006.3
20260505030032 70 226 2.6 7.8 0.00 0.00 0.00 54 1006.1
20260505024532 71 210 3.5 9.6 0.00 0.00 0.00 53 1005.9
20260505021530 73 256 6.1 14.8 0.00 0.00 0.00 51 1005.7
20260505020029 73 259 7.0 12.2 0.00 0.00 0.00 51 1005.8
20260505014533 73 254 7.0 14.8 0.00 0.00 0.00 51 1005.6
20260505011531 76 251 8.7 14.8 0.00 0.00 0.00 48 1005.5
20260505010032 77 253 8.7 15.6 0.00 0.00 0.00 47 1005.5
20260505003144 78 254 10.4 17.4 0.00 0.00 0.00 45 1005.4
20260505001528 79 256 10.4 20.9 0.00 0.00 0.00 45 1005.3
20260505000029 80 262 8.7 15.6 0.00 0.00 0.00 45 1005.4
20260504234531 81 267 7.0 14.8 0.00 0.00 0.00 44 1005.4
20260504231529 82 251 7.0 14.8 0.00 0.00 0.00 44 1005.4
20260504223030 83 312 3.5 8.7 0.00 0.00 0.00 45 1006.0
20260504221531 82 301 4.3 10.4 0.00 0.00 0.00 45 1006.1
20260504220032 81 343 6.1 11.3 0.00 0.00 0.00 46 1006.1
20260504214530 80 359 7.0 12.2 0.00 0.00 0.00 46 1006.3
20260504213031 80 350 7.0 13.9 0.00 0.00 0.00 46 1006.5
20260504211533 80 359 7.8 12.2 0.00 0.00 0.00 46 1006.6
20260504204530 80 340 7.0 12.2 0.00 0.00 0.00 46 1006.9
20260504203108 80 337 7.0 13.0 0.00 0.00 0.00 46 1006.9
20260504201530 79 340 5.2 10.4 0.00 0.00 0.00 47 1007.1
20260504200031 78 338 7.0 12.2 0.00 0.00 0.00 47 1007.2
20260504193032 78 353 7.8 13.0 0.00 0.00 0.00 48 1007.3
20260504191531 77 348 7.8 13.0 0.00 0.00 0.00 49 1007.4
20260504190033 76 347 6.1 13.0 0.00 0.00 0.00 50 1007.6
20260504184531 76 338 7.0 13.0 0.00 0.00 0.00 50 1007.7
20260504183030 75 353 7.0 12.2 0.00 0.00 0.00 51 1007.6
20260504181531 74 358 7.0 13.0 0.00 0.00 0.00 52 1007.8
20260504180030 74 6 7.8 13.0 0.00 0.00 0.00 54 1007.8
20260504174532 73 350 6.1 10.4 0.00 0.00 0.00 55 1007.9
20260504173029 72 354 6.1 9.6 0.00 0.00 0.00 56 1007.9
20260504171529 71 3 6.1 9.6 0.00 0.00 0.00 57 1007.9